Powrót do katalogu

STARLINK-5996

AktywnyŁącznośćVLEO
NORAD 57227·PAYLOAD·🇺🇸 United States

Wystrzelony Jul 7, 2023 z Vandenberg Space Force Base

Loading…

Następne Przeloty (najbliższe 24 godziny)

TLE

ŚwieżeSource: CelesTrak SupGP

Epoka: Sep 15, 2026, 01:52 UTC

1 57227C 23094K   26258.07826389 -.00055486  00000+0 -20095-2 0  2582
2 57227  43.0018  44.3849 0001951 259.1317  43.2532 15.27608303    12

Śledź STARLINK-5996 w czasie rzeczywistym z AllMySat

Download on the App Store